www.pogodaiklimat.ru

Погода и климат >> Архив погоды >> Россия >> Ямало-Ненецкий АО >> Полуй


ПОГОДА в Полуе

  • Прогноз погоды в Полуе
  • Монитор погоды в Полуе

АРХИВ ПОГОДЫ в Полуе

Время (UTC), дата Ветер
(напр.,м/с)
 
Видим.   Явления Облачность Т
(С)
Тd
(С)
f
(%)
Тe
(С)
Тes
(С)
Комфортность P
(гПа)
Po
(гПа)
Тmin
(С)
Tmax
(С)
R
(мм)
R24
(мм)
S
(см)
09 15.08 З 1 50 км 10/4 600 м
[Cu Sc Ac As Ci sp]
+19.9 +14.7 72 +23 +26 комфорт 1012.2 1008.1
12 15.08 СЗ 1 50 км {ливн. осадки} н/о +18.7 +14.4 76 +21 +21 комфорт 1012.6 1008.5
15 15.08 З 1 50 км 10/10 600 м
[Cb cap]
+16.8 +13.7 82 +18 +18 1013.2 1009.0 +20.7 0.7
18 15.08 С 1 н/о н/о +14.1 +12.5 90 +14 +14 1013.7 1009.5
21 15.08 СВ 1 50 км 10/0
[Ac As]
+13.1 +12.0 93 +13 +13 1013.6 1009.4
00 16.08 СВ 1 50 км 10/10 600 м
[Sc]
+13.1 +12.0 93 +13 +13 1013.6 1009.4
03 16.08 В 1 50 км 10/10 600 м
[Cu Sc]
+15.0 +13.4 90 +15 +15 1013.0 1008.8 +11.5
06 16.08 Ю 2 н/о н/о +18.6 +14.0 75 +20 +20 1011.3 1007.2
09 16.08 Ю 3 50 км 9/8 600 м
[Cb cap Ci fib]
+20.7 +14.1 66 +24 +25 комфорт 1009.9 1005.8
15 16.08 ЮЗ 4 10 км слаб. ливневой дождь 10/8 600 м
[Cb cap As trans]
+18.3 +16.2 88 +19 +19 1007.9 1003.8 +21.4 1
18 16.08 ЮЗ 2 50 км {ливн. осадки} 4/0
[Ci sp]
+16.1 +14.4 90 +16 +16 1007.7 1003.5
21 16.08 Ю 1 50 км 8/0
[Ac As]
+15.5 +14.0 91 +16 +16 1007.6 1003.4
00 17.08 ЮЗ 1 н/о н/о +14.3 +12.8 91 +15 +15 1007.9 1003.8
03 17.08 ЮЗ 3 50 км 3/0
[Ci sp]
+15.1 +11.3 78 +14 +17 1008.0 1003.8 +13.3 0.3
06 17.08 З 3 н/о н/о +17.2 +10.2 63 +17 +17 1009.1 1004.9 +13.3
09 17.08 З 5-10
{11}
50 км 9/9 600 м
[Cb cap]
+17.7 +9.1 57 +17 +18 1010.6 1006.5
12 17.08 З 3
{10}
н/о н/о +17.5 +10.0 61 +18 +18 1012.2 1008.0
15 17.08 СЗ 3 50 км 9/3 600 м
[Cu hum Ac As]
+15.1 +9.8 71 +14 +14 1013.7 1009.5 +18.7
18 17.08 СЗ 2 н/о н/о +11.0 +8.2 83 +10 +10 1015.2 1010.9
21 17.08 СЗ 2 50 км 4/0
[Ac lent Cc]
+8.7 +7.2 90 +7 +7 1016.3 1012.0
00 18.08 СЗ 1 н/о н/о +7.1 +5.9 92 +6 +6 1017.7 1013.4
03 18.08 С 2 50 км 8/0
[Ac As Ci sp]
+10.5 +7.4 81 +9 +11 1018.8 1014.5 +7.1
06 18.08 С 3 н/о н/о +15.1 +7.7 61 +14 +14 1019.5 1015.3
09 18.08 С 3 50 км 10/10 600 м
[Cu Sc]
+13.7 +8.0 68 +13 +13 1021.4 1017.1
12 18.08 СЗ 1 50 км {дождь} 10/10 600 м
[Cu Sc]
+12.4 +7.6 73 +13 +13 1023.0 1018.7
15 18.08 СЗ 1 50 км 8/0
[Ac As]
+13.1 +8.0 71 +13 +13 1024.0 1019.7 +15.5 0.3
18 18.08 СВ 1 н/о н/о +7.8 +6.4 91 +7 +7 1025.3 1021.0
21 18.08 С 1 50 км ясно +5.3 +4.0 91 +4 +4 1026.2 1021.8
00 19.08 СВ 2 н/о н/о +7.4 +6.3 93 +5 +5 1027.9 1023.5
03 19.08 СВ 2 50 км {туман} 10/10 600 м
[Sc]
+8.3 +6.8 90 +6 +6 1028.5 1024.1 +4.9
06 19.08 С 2 н/о н/о +10.8 +6.3 74 +10 +10 1028.8 1024.5
09 19.08 С 2 50 км 9/9 600 м
[Cu Sc]
+13.8 +7.6 66 +13 +14 1028.3 1024.1
12 19.08 СВ 2 50 км 6/3 600 м
[Cu med, cong Ci fib]
+14.9 +8.2 64 +15 +16 1028.0 1023.7
15 19.08 СВ 1 50 км 3/0
[Ci sp]
+11.8 +8.8 82 +12 +12 1027.9 1023.6 +14.9
18 19.08 С 1 н/о н/о +8.4 +7.2 92 +8 +8 1028.0 1023.6
21 19.08 С 1 50 км 10/0
[Ac As]
+9.8 +8.7 93 +9 +9 1027.7 1023.4
00 20.08 С 1 н/о н/о +10.8 +9.7 93 +10 +10 1027.4 1023.1
03 20.08 СВ 1 50 км 8/3 600 м
[Cu med, cong Ac trans]
+14.6 +11.4 81 +15 +16 1027.2 1023.0 +7.9
06 20.08 СВ 3 н/о н/о +16.7 +10.3 66 +17 +17 1026.9 1022.7
09 20.08 СВ 3 50 км 3/1 600 м
[Cu hum Ci fib]
+18.3 +9.4 56 +19 +23 1026.1 1021.9
12 20.08 СВ 2 50 км ясно +18.1 +9.2 56 +19 +21 1025.8 1021.6
15 20.08 С 1 50 км 3/0
[Ac cast]
+14.0 +10.3 78 +14 +14 1025.6 1021.3 +18.6
18 20.08 СВ 2 н/о н/о +10.0 +8.5 90 +8 +8 1025.9 1021.6
21 20.08 СВ 2 н/о н/о +7.9 +6.8 93 +6 +6 1025.6 1021.3
00 21.08 штиль 0 н/о н/о +6.9 +5.8 93 +6 +6 1025.7 1021.3
03 21.08 С 1 500 м туман ясно +9.6 +8.5 93 +9 +12 1025.4 1021.0 +6.2
06 21.08 С 1 н/о н/о +16.4 +10.6 69 +17 +17 1024.6 1020.4
09 21.08 ЮЗ 1 50 км ясно +19.1 +9.8 55 +21 +29 комфорт 1023.3 1019.1
12 21.08 штиль 0 н/о н/о +20.3 +8.8 48 +21 +21 комфорт 1021.9 1017.7
15 21.08 В 1 50 км 3/0
[Ci sp]
+13.8 +10.7 82 +14 +14 1020.8 1016.6 +20.8
18 21.08 ЮВ 1 н/о н/о +11.3 +9.1 86 +11 +11 1019.9 1015.6
21 21.08 В 1 50 км 3/0
[Ci fib]
+10.3 +9.0 92 +10 +10 1018.7 1014.4
00 22.08 ЮВ 1 н/о н/о +9.1 +7.9 92 +8 +8 1017.6 1013.3
03 22.08 ЮВ 1 50 км ясно +13.4 +10.9 85 +14 +16 1016.4 1012.1 +8.9

 

Местоположение метеостанции Полуй (Ямало-Ненецкий АО, Россия): широта 66.03 долгота 68.68 высота над уровнем моря 36 м.

В архиве по умолчанию представлена погода в Полуе за последнюю неделю. Архивные данные за месяц целиком и за предыдущие месяцы, начиная с января 2011 года, Вы можете получить, выбрав интересующий диапазон дат из раскрывающегося списка и нажав кнопку "Ввод!".


*Определитесь, кто Вы:
робот инопланетянин человек

Внимание! Время в таблицах - всемирное. Для получения местного времени необходимо прибавить поправку, которая равна 5 ч.

Смотрите также архив погоды в соседних городах и на ближайших метеорологических станциях:

Погода в Белоярске (Ямало-Ненецкий АО, Россия) (97 км)
Погода в Салехарде (Ямало-Ненецкий АО, Россия) (106 км)
Погода в Питляре (Ямало-Ненецкий АО, Россия) (127 км)
Погода в Харпе (Ямало-Ненецкий АО, Россия) (155 км)
Погода в Лонг-Югане (Ямало-Ненецкий АО, Россия) (175 км)
Погода в Надыме (Ямало-Ненецкий АО, Россия) (193 км)
Погода в Мужах (Ямало-Ненецкий АО, Россия) (195 км)
Погода в Ныде (Ямало-Ненецкий АО, Россия) (201 км)
Погода в Елецкой (Коми, Россия) (233 км)
Погода в Новом Порте (Ямало-Ненецкий АО, Россия) (260 км)

Пояснения к столбцам:

Ветер - указаны скорость ветра в м/с - средняя за 10 мин, порывы в срок и между сроками (в фигурных скобках) и направление, откуда дует ветер: С - северный, СВ - северо-восточный, В - восточный, ЮВ - юго-восточный, Ю - южный, ЮЗ - юго-западный, З - западный, СЗ - северо-западный.
Видимость - горизонтальная дальность видимости в метрах или километрах. При видимости от 1 до 10 км при отсутствии осадков обычно наблюдается дымка, при ухудшении видимости до 1 км и менее - туман. В сухую погоду видимость может ухудшаться дымом, пылью или мглою.
Явления - указаны атмосферные явления, наблюдавшиеся в срок или в последний час перед сроком; фигурными скобками обозначены явления, наблюдавшиеся между сроками (за 1-3 часа до срока); квадратными скобками обозначены град или гололедные отложения с указанием их диаметра в мм.
Облачность - указаны через наклонную черту общая и нижняя облачность в баллах и высота нижней границы облаков в метрах; квадратными скобками обозначены формы облаков: Ci - перистые, Cs - перисто-слоистые, Cc - перисто-кучевые, Ac - высококучевые, As - высокослоистые, Sc - слоисто-кучевые, Ns - слоисто-дождевые, Cu - кучевые, Cb - кучево-дождевые. Подробнее классификацию облаков см. в Атласе облаков (PDF).
T - Температура воздуха - температура, измеренная на высоте 2 м над землей.
Td - Температура точки росы - температура, при понижении до которой содержащийся в воздухе водяной пар достигнет насыщения.
f - Относительная влажность воздуха - влажноcть воздуха, измеренная на высоте 2 м над землей.
Te - Эффективная температура - температура, которую ощущает одетый по сезону человек в тени. Характеристика душности погоды. При расчете учитывается влияние влажности воздуха и скорости ветра на теплоощущения человека.
Tes - Эффективная температура на солнце - температура, которую ощущает человек, с поправкой на солнечный нагрев. Характеристика знойности погоды. Зависит от высоты солнца над горизонтом, облачности и скорости ветра. Ночью, в пасмурную погоду, а также при ветре 12 м/с и более поправка равна нулю.
P - Атмосферное давление - приведенное к уровню моря атмосферное давление.
Po - Атмосферное давление - измеренное на уровне метеостанции атмосферное давление.
Tmin - Минимальная температура - минимум температуры воздуха на высоте 2 м над землей.
Tmax - Максимальная температура - максимум температуры воздуха на высоте 2 м над землей.
R - Количество осадков - Количество выпавших осадков за период времени, мм. При наведении курсора мыши на число - период времени, за который выпало указанное количество осадков.
R24 - Количество осадков - Количество выпавших осадков за 24 часа, мм.
S - Снежный покров - Высота снежного покрова, см. При наведении курсора мыши на число - состояние снежного покрова и степень покрытия местности в баллах.